China Lake, CA

2:12 PM PDT on May 25, 2018 (GMT -0700)
China Lake NAWS

Weather History for KNID - December, 2014

Change the Weather History Date:

Wednesday, December 3, 2014

  Actual Average Record
Temperature  
Mean Temperature 55 °F -  
Max Temperature 60 °F 57 °F 70 °F (2017)
Min Temperature 50 °F 34 °F 23 °F (2007)
Degree Days  
Heating Degree Days 10    
Growing Degree Days 5 (Base 50)    
Moisture  
Dew Point 51 °F    
Average Humidity 92    
Maximum Humidity 100    
Minimum Humidity 75    
Precipitation  
Precipitation 0.00 in - - ()
Sea Level Pressure  
Sea Level Pressure 29.99 in    
Wind  
Wind Speed 2 mph (South)    
Max Wind Speed 8 mph    
Max Gust Speed -    
Visibility 7 miles    
Events Rain    
Averages and records for this station are not official NWS values.
T = Trace of Precipitation, MM = Missing Value Source: NWS Daily Summary

Daily Weather History Graph

Daily Weather History Graph

Search for Another Location

Airport or City:

Astronomy

Dec. 03, 2014 Rise Set
Actual Time 6:43 AM PST 4:37 PM PST
Civil Twilight 6:15 AM PST 5:05 PM PST
Nautical Twilight 5:44 AM PST 5:36 PM PST
Astronomical Twilight 5:13 AM PST 6:07 PM PST
Moon 2:55 PM PST (12/3) 3:42 AM PST (12/3)
Length of Visible Light 10h 49m
Length of Day
9h 53m
Waxing Gibbous, 92% of the Moon is Illuminated
Dec 3
Waxing Gibbous
Dec 6
Full
Dec 14
Last Quarter
Dec 21
New
Dec 28
First Quarter

Hourly Weather History & Observations

Time (PST) Temp. Dew Point Humidity Pressure Visibility Wind Dir Wind Speed Gust Speed Precip Events Conditions
12:56 AM 50.0 °F 48.9 °F 96% 29.99 in 6.0 mi Calm Calm - N/A   Overcast
1:54 AM 51.8 °F 48.2 °F 88% 29.99 in 7.0 mi Calm Calm - N/A   Overcast
1:56 AM 51.1 °F 50.0 °F 96% 29.99 in 8.0 mi Calm Calm - N/A   Overcast
2:56 AM 51.1 °F 50.0 °F 96% 30.00 in 9.0 mi ESE 3.5 mph - N/A   Overcast
3:29 AM 50.0 °F 48.9 °F 96% 29.99 in 6.0 mi WNW 3.5 mph - N/A   Overcast
3:39 AM 50.0 °F 48.9 °F 96% 29.99 in 4.0 mi NW 3.5 mph - N/A   Overcast
3:56 AM 50.0 °F 50.0 °F 100% 30.00 in 3.0 mi NW 4.6 mph - N/A   Overcast
3:58 AM 50.0 °F 50.0 °F 100% 29.99 in 2.5 mi NW 4.6 mph - N/A   Overcast
4:18 AM 50.0 °F 50.0 °F 100% 29.99 in 4.0 mi NW 3.5 mph - N/A   Overcast
4:51 AM 50.0 °F 50.0 °F 100% 29.99 in 4.0 mi Calm Calm - N/A   Overcast
4:56 AM 50.0 °F 50.0 °F 100% 30.00 in 4.0 mi Calm Calm - N/A   Overcast
5:18 AM 50.0 °F 48.9 °F 96% 29.99 in 5.0 mi Calm Calm - N/A   Overcast
5:56 AM 50.0 °F 50.0 °F 100% 29.99 in 6.0 mi Calm Calm - N/A   Overcast
6:41 AM 51.1 °F 50.0 °F 96% 30.00 in 8.0 mi Calm Calm - N/A   Overcast
6:56 AM 51.1 °F 51.1 °F 100% 30.01 in 7.0 mi Calm Calm - N/A   Overcast
7:03 AM 51.1 °F 50.0 °F 96% 30.01 in 5.0 mi Calm Calm - N/A   Overcast
7:33 AM 51.1 °F 50.0 °F 96% 30.01 in 4.0 mi Calm Calm - N/A   Overcast
7:56 AM 51.1 °F 51.1 °F 100% 30.02 in 2.5 mi Calm Calm - N/A   Overcast
8:05 AM 51.1 °F 51.1 °F 100% 30.02 in 3.0 mi Calm Calm - N/A   Overcast
8:17 AM 51.1 °F 50.0 °F 96% 30.02 in 3.0 mi Calm Calm - 0.00 in Rain Light Rain
8:25 AM 51.1 °F 51.1 °F 100% 30.02 in 3.0 mi Calm Calm - 0.00 in   Overcast
8:31 AM 51.1 °F 51.1 °F 100% 30.03 in 2.5 mi Calm Calm - 0.00 in   Overcast
8:43 AM 52.0 °F 51.1 °F 97% 30.03 in 4.0 mi Calm Calm - 0.00 in   Overcast
8:56 AM 52.0 °F 51.1 °F 97% 30.04 in 6.0 mi Calm Calm - 0.00 in   Overcast
9:20 AM 53.1 °F 51.1 °F 93% 30.04 in 10.0 mi Calm Calm - N/A   Overcast
9:56 AM 54.0 °F 52.0 °F 93% 30.05 in 10.0 mi East 3.5 mph - N/A   Overcast
10:01 AM 54.0 °F 51.1 °F 90% 30.05 in 10.0 mi East 3.5 mph - N/A   Overcast
10:56 AM 54.0 °F 52.0 °F 93% 30.02 in 10.0 mi East 5.8 mph - N/A   Overcast
11:22 AM 55.9 °F 53.1 °F 90% 30.00 in 10.0 mi ESE 5.8 mph - N/A   Scattered Clouds
11:25 AM 55.9 °F 53.1 °F 90% 30.00 in 10.0 mi ESE 4.6 mph - N/A   Mostly Cloudy
11:56 AM 57.0 °F 52.0 °F 83% 29.99 in 10.0 mi East 5.8 mph - N/A   Mostly Cloudy
12:56 PM 59.0 °F 51.1 °F 75% 29.96 in 10.0 mi Variable 3.5 mph - N/A   Overcast
1:56 PM 59.0 °F 52.0 °F 78% 29.94 in 10.0 mi WSW 5.8 mph - N/A   Overcast
2:56 PM 59.0 °F 52.0 °F 78% 29.94 in 10.0 mi WSW 3.5 mph - N/A   Mostly Cloudy
3:03 PM 60.1 °F 52.0 °F 75% 29.94 in 10.0 mi South 6.9 mph - N/A   Overcast
3:56 PM 57.9 °F 51.1 °F 78% 29.94 in 10.0 mi SW 8.1 mph - N/A   Overcast
4:56 PM 55.9 °F 51.1 °F 84% 29.95 in 10.0 mi South 3.5 mph - N/A   Overcast
5:56 PM 55.0 °F 51.1 °F 86% 29.96 in 10.0 mi South 6.9 mph - N/A   Overcast
6:09 PM 55.0 °F 51.1 °F 86% 29.95 in 10.0 mi SSW 5.8 mph - N/A   Mostly Cloudy
6:22 PM 55.0 °F 50.0 °F 83% 29.96 in 10.0 mi SSW 6.9 mph - N/A   Overcast
6:56 PM 55.0 °F 50.0 °F 83% 29.96 in 10.0 mi WSW 5.8 mph - N/A   Overcast
7:56 PM 54.0 °F 51.1 °F 90% 29.96 in 10.0 mi SSE 5.8 mph - N/A   Overcast
8:56 PM 54.0 °F 51.1 °F 90% 29.97 in 10.0 mi SSE 4.6 mph - N/A   Mostly Cloudy
9:56 PM 54.0 °F 52.0 °F 93% 29.96 in 9.0 mi South 4.6 mph - N/A   Overcast
10:10 PM 55.0 °F 52.0 °F 89% 29.95 in 9.0 mi South 4.6 mph - N/A   Mostly Cloudy
10:56 PM 55.0 °F 52.0 °F 89% 29.96 in 10.0 mi SSW 8.1 mph - N/A   Overcast
11:56 PM 54.0 °F 52.0 °F 93% 29.95 in 9.0 mi South 5.8 mph - N/A   Mostly Cloudy